Theta_e
322 321 319 319 318 317 315 314 313 313 311 310 312 309 307 306 306 306 304 302 295 294 294 294 293 293 294 293 293 292 292 292 293 295 296 296 296 301 314 317 320 322 323 324 326 325 325 325 324 324 324 324 323 322 321 322 322 324 320 321 320 319 319 320 320 321 321 322 321 321 322 321 322 323 325 324 325 326 327 328 328 329 329 330 331
322 319 318 317 315 314 313 312 312 311 311 311 308 309 307 303 303 305 304 300 295 294 294 294 293 293 293 294 293 294 292 293 293 295 294 295 297 298 310 315 319 322 322 322 324 325 325 325 324 323 323 323 322 323 322 322 323 322 321 321 320 320 320 320 319 320 321 320 320 320 320 321 321 321 322 323 323 323 324 325 326 326 327 328 328
321 319 317 316 314 313 312 310 310 310 311 311 308 309 305 306 305 304 304 300 296 293 293 294 293 293 293 293 293 292 292 292 294 294 295 295 295 297 300 311 316 319 323 322 322 324 324 324 323 324 324 324 324 323 323 322 324 322 322 321 320 319 318 319 319 320 320 319 319 319 319 320 320 320 320 320 320 321 321 322 323 324 325 325 325
321 319 318 316 314 313 311 311 311 309 310 310 307 307 306 304 301 301 300 298 295 292 292 293 292 294 292 292 292 292 292 292 293 294 295 295 295 296 297 301 309 314 317 321 324 322 322 323 323 323 323 326 325 323 324 321 325 322 319 319 319 318 318 318 318 319 319 319 318 318 318 319 319 319 319 319 319 320 320 320 320 320 321 322 323
320 319 316 315 313 313 311 311 311 310 310 308 307 303 302 299 298 297 296 294 293 292 292 291 292 292 291 292 291 291 291 291 293 294 295 295 296 295 295 297 297 305 310 314 319 323 323 321 323 322 324 326 326 325 323 321 321 322 321 321 319 319 318 317 318 318 319 318 318 318 318 319 318 318 318 318 318 318 319 318 318 319 319 319 319
318 316 316 314 313 313 312 310 309 309 309 307 306 304 301 299 297 295 296 294 293 291 291 291 291 291 291 290 290 292 292 292 292 294 294 296 297 294 294 295 295 295 297 306 311 317 321 322 323 323 324 325 326 324 323 322 321 322 322 321 320 318 318 318 318 318 318 318 318 318 318 318 317 317 317 317 317 317 317 317 317 318 319 318 318
317 317 314 313 312 311 310 311 308 308 308 305 306 302 301 299 295 296 292 292 291 291 290 291 291 292 292 291 292 290 290 293 292 292 292 295 296 296 295 294 294 294 296 293 301 309 315 319 321 322 322 324 327 321 320 322 322 323 321 321 319 318 320 319 317 318 318 317 318 317 317 318 317 317 317 317 316 316 316 316 316 317 317 317 317
315 315 315 313 312 312 311 308 307 307 306 303 303 301 299 298 295 296 293 291 290 290 289 289 289 291 290 291 291 291 290 290 292 292 292 293 297 296 296 295 293 293 298 294 295 298 311 313 316 318 318 320 322 325 321 320 319 320 319 319 320 318 319 318 318 318 318 319 317 317 317 316 316 316 316 315 315 315 315 315 315 316 316 316 317
315 314 315 313 312 311 309 308 306 307 305 302 302 300 298 298 294 294 295 293 290 289 289 289 289 290 289 289 289 291 291 292 292 292 291 292 292 293 294 292 292 300 293 292 293 293 304 310 312 313 314 315 319 323 323 325 319 319 319 319 318 319 318 317 317 318 317 317 316 316 316 316 315 315 314 314 314 314 314 314 314 315 315 315 315
314 314 314 313 311 311 308 307 307 306 304 301 301 297 297 297 295 292 293 292 290 290 290 288 289 290 288 288 288 289 290 290 291 293 290 290 290 291 293 291 293 293 292 292 292 292 293 299 306 307 308 311 316 319 321 322 323 321 319 318 318 318 318 318 317 316 317 315 315 315 314 314 313 313 313 313 312 312 313 313 313 313 313 314 314
313 313 313 312 311 310 309 307 307 306 304 301 298 295 294 295 296 292 290 290 291 290 290 289 289 289 288 287 287 288 289 289 290 290 289 291 291 291 289 290 290 290 291 291 291 291 292 291 291 291 294 309 312 315 317 318 320 321 321 319 318 318 317 318 317 316 316 315 314 314 313 313 312 313 312 312 312 312 312 312 313 313 313 314 314
311 311 311 310 309 308 309 306 306 305 304 301 299 297 297 295 294 293 290 290 288 288 288 289 287 286 287 288 286 286 288 289 289 289 290 289 290 290 289 289 288 288 289 290 291 290 290 290 292 292 293 300 307 309 311 313 314 317 320 323 320 317 317 318 317 316 315 314 313 313 313 312 312 312 311 311 311 312 312 312 313 313 313 313 313
309 310 310 308 307 306 306 305 304 304 304 304 302 300 298 297 295 293 292 289 288 287 288 289 288 287 286 284 285 285 287 289 288 289 289 288 288 289 288 288 287 287 289 288 288 288 288 289 291 291 292 290 293 302 305 307 307 313 318 320 323 319 317 318 318 317 315 314 313 313 312 311 311 311 311 311 311 311 311 312 312 312 312 312 312
305 307 307 307 306 304 304 304 303 303 302 301 300 298 296 296 294 293 293 292 290 288 290 290 287 285 285 285 284 285 286 287 287 288 288 288 289 289 289 289 288 288 287 287 287 287 288 289 289 292 291 291 289 289 292 295 297 309 314 317 320 322 319 317 317 315 314 313 312 311 311 311 311 311 310 311 311 311 311 311 311 311 312 312 311
302 302 303 304 304 304 302 302 301 301 301 300 299 298 297 296 294 296 293 292 291 290 290 290 287 283 282 283 281 283 285 286 287 287 287 288 287 288 288 288 288 288 288 287 288 288 288 288 289 290 290 291 289 290 291 295 294 301 307 312 316 319 321 318 317 316 314 313 312 311 311 311 310 310 310 310 310 310 310 310 311 311 311 310 311
298 299 299 298 299 301 301 300 299 299 300 300 298 298 297 296 294 294 295 292 290 290 292 291 286 287 283 285 280 281 279 283 286 285 286 288 288 287 286 288 288 287 286 288 288 288 288 288 288 289 290 291 290 289 291 289 295 299 299 303 307 314 319 318 317 316 314 313 313 312 311 311 310 310 309 310 309 310 310 310 310 310 310 310 310
297 297 297 297 296 296 297 297 298 298 299 298 298 298 298 297 296 294 293 294 292 291 291 292 290 290 287 280 280 281 280 279 281 282 283 285 286 286 287 287 287 287 286 287 287 287 288 287 287 288 289 290 289 289 290 291 291 293 295 298 301 310 315 319 318 316 315 313 313 312 311 310 309 309 309 309 310 310 310 310 309 309 309 310 310
296 296 295 295 296 295 293 295 295 295 297 298 297 297 296 295 295 295 294 293 294 292 290 292 292 290 288 285 284 282 281 279 283 281 281 283 285 285 286 286 286 286 286 286 286 287 287 288 287 288 289 289 289 289 289 289 290 290 291 293 305 310 313 317 316 316 315 314 314 313 312 310 309 309 310 309 310 309 309 309 309 309 309 309 309
293 293 294 294 294 294 294 293 292 292 292 294 295 296 296 296 296 295 294 294 292 291 290 291 291 291 290 289 286 284 281 282 281 280 280 280 283 285 285 284 285 285 286 286 286 286 286 287 288 288 288 289 289 289 289 289 293 293 297 300 306 308 310 313 316 315 315 315 314 313 313 311 310 309 309 309 309 309 309 309 309 309 309 309 309
291 291 291 292 292 293 293 293 292 292 290 291 292 293 295 295 295 295 294 293 293 291 291 291 290 291 292 291 289 286 282 283 281 283 282 281 281 282 282 284 283 285 286 286 286 286 286 287 287 287 287 288 288 288 288 288 288 290 293 301 306 307 308 310 312 313 314 315 315 314 313 312 311 310 310 309 308 309 309 308 308 308 309 308 308
290 290 290 290 290 291 292 292 292 291 290 291 289 290 290 291 292 293 293 293 292 292 291 291 290 290 290 289 289 289 287 286 283 282 282 280 281 280 282 282 283 284 285 286 286 286 287 287 287 288 288 288 288 288 288 287 288 289 292 300 305 307 308 309 309 312 312 312 312 312 312 312 311 311 311 310 308 308 309 309 308 308 308 309 309
288 288 289 289 289 290 291 291 291 291 290 290 289 290 290 289 289 290 291 291 292 292 291 291 291 291 291 291 289 287 285 285 285 285 283 282 284 282 280 282 282 284 286 286 286 286 286 286 286 287 288 288 288 288 287 287 288 289 291 299 303 305 307 308 307 307 308 308 309 310 310 311 311 311 311 311 310 309 309 309 309 308 309 308 308
287 287 287 288 288 289 289 290 290 290 290 290 290 290 290 289 289 287 287 288 289 291 291 291 290 290 289 289 289 289 288 286 285 285 286 285 283 283 281 282 283 283 283 286 287 285 285 285 286 287 288 288 288 287 287 287 290 291 294 298 302 304 306 307 306 305 306 306 306 306 309 309 310 311 311 311 311 311 310 309 309 308 308 309 308
285 285 286 286 287 287 288 288 288 288 289 289 289 289 289 289 288 287 286 285 285 286 287 288 289 289 289 289 289 289 289 288 287 287 286 286 286 285 283 280 281 282 282 280 283 285 285 285 286 287 287 288 288 287 287 287 288 292 293 296 301 304 306 307 307 305 304 304 305 305 306 308 308 308 309 310 311 310 310 310 310 309 309 309 308
284 284 284 285 285 285 286 286 286 287 287 287 288 288 288 287 287 286 286 285 286 284 284 285 287 287 288 289 289 289 288 289 289 288 287 287 286 285 284 280 283 280 280 281 282 282 285 285 286 287 287 287 288 287 287 286 286 291 294 293 299 302 303 305 306 305 304 303 304 303 303 304 305 306 307 307 309 309 310 311 311 310 309 309 307
282 283 283 284 284 284 284 284 285 285 286 286 286 286 286 286 285 285 285 286 284 283 283 283 283 284 284 285 285 286 287 288 288 288 287 286 285 285 286 282 280 282 279 279 279 282 282 285 286 286 286 287 288 287 286 286 286 291 293 291 295 300 301 303 305 304 303 303 303 303 302 302 304 304 305 306 307 308 308 309 310 310 309 309 308
282 282 283 283 283 283 283 283 283 284 284 285 285 285 285 285 285 285 285 286 285 284 284 283 284 284 284 283 284 284 284 285 286 287 288 288 287 286 285 285 284 282 281 281 279 281 283 281 285 285 286 287 287 287 287 286 288 290 292 291 290 297 300 301 303 305 303 302 302 302 301 301 302 303 303 304 306 306 307 307 308 308 309 309 308
282 282 282 282 282 282 282 282 282 283 283 283 283 284 284 284 285 285 285 287 285 284 285 283 284 283 283 283 283 283 284 284 284 285 285 287 287 287 285 285 283 283 282 282 280 280 282 282 282 285 286 286 287 287 288 288 287 290 291 289 288 291 298 300 302 303 303 302 301 301 301 300 301 302 302 302 303 304 304 306 306 307 307 307 306
281 281 281 280 281 281 281 281 282 282 282 282 282 282 283 283 283 284 284 285 284 284 285 284 284 284 283 283 283 284 283 283 283 283 283 284 285 286 287 286 286 283 283 283 283 281 281 283 283 283 285 287 287 287 287 287 288 288 287 288 287 287 294 299 301 302 303 302 301 300 300 299 300 300 300 300 301 302 302 302 302 303 304 304 304
280 281 280 280 280 281 280 280 280 281 281 281 282 282 282 283 283 283 283 283 283 284 284 284 284 284 284 284 283 283 284 283 283 283 283 284 283 284 285 286 286 285 285 283 284 283 281 281 283 283 283 285 287 287 287 287 289 289 287 287 286 286 291 296 299 301 302 302 300 299 299 299 299 298 299 299 300 301 302 301 301 301 302 302 303
280 280 280 280 280 280 280 280 280 280 279 280 280 281 281 282 282 282 282 282 282 283 284 284 284 284 284 284 284 283 284 283 283 283 283 283 283 283 284 284 284 285 285 285 282 285 284 283 282 284 283 284 286 286 287 287 288 288 287 287 286 287 290 293 296 299 300 301 300 299 300 299 298 298 298 298 298 300 300 300 299 300 300 300 300
278 278 278 278 279 279 279 280 280 280 280 280 280 280 280 280 281 281 282 283 283 283 283 283 284 284 283 283 283 283 284 283 283 283 283 282 283 283 283 283 284 284 285 284 283 284 283 284 284 284 284 284 285 285 285 286 287 289 286 286 285 287 287 287 294 297 298 300 300 300 299 299 298 297 297 297 298 299 299 299 298 299 298 299 299
278 278 278 278 278 278 278 279 279 279 279 280 280 280 280 280 280 280 281 281 281 282 283 284 284 283 283 283 283 284 284 283 283 283 283 283 282 282 282 282 283 283 283 283 282 283 284 282 282 282 283 283 283 285 284 285 284 285 287 285 284 283 284 285 287 293 296 299 300 299 299 299 298 297 297 296 297 297 298 298 297 297 298 298 298
277 277 277 278 278 278 278 278 278 278 278 279 279 279 279 279 279 281 281 280 280 280 281 281 283 284 284 283 283 283 283 283 283 283 283 283 282 282 282 281 282 283 283 283 283 283 283 283 281 280 280 283 283 284 284 284 284 284 284 285 283 282 283 283 284 286 294 297 299 298 298 298 298 298 297 296 296 297 297 298 297 297 297 297 296
276 276 276 276 277 277 277 277 277 278 278 278 278 278 278 279 279 279 280 279 279 280 280 280 281 282 282 283 283 284 284 283 283 283 283 283 283 283 283 282 282 282 282 283 283 282 283 283 282 281 280 281 283 283 284 285 285 284 284 284 283 282 282 282 282 283 290 295 298 298 298 298 297 297 297 296 296 296 296 297 296 296 297 297 296
277 277 276 276 276 276 276 276 276 276 277 277 278 278 278 278 278 279 279 279 279 279 280 280 280 281 281 281 282 283 284 283 283 283 283 283 283 283 283 283 283 283 282 282 282 282 283 282 282 281 281 280 282 283 284 284 284 283 283 284 284 282 282 282 281 281 286 293 296 297 297 297 297 297 297 296 296 296 296 296 296 295 295 296 296
276 276 276 275 276 275 276 276 276 276 276 277 277 277 277 278 278 278 278 279 279 279 280 280 281 280 281 281 281 282 282 282 283 283 283 283 284 284 283 283 283 283 283 282 282 282 282 281 283 281 280 281 282 282 283 283 282 282 282 282 282 282 281 281 281 282 285 290 293 295 296 296 296 296 296 296 296 296 296 296 296 295 294 295 294
275 275 275 275 275 275 275 275 275 275 276 276 276 276 276 277 277 277 278 278 278 279 279 280 280 280 280 281 281 281 281 281 281 282 283 283 283 284 284 284 284 284 284 283 283 282 282 282 282 282 279 280 280 281 282 283 282 281 281 281 280 280 280 279 279 281 281 283 286 291 293 294 295 296 296 296 296 296 296 296 295 295 293 293 293
275 275 275 275 275 275 275 275 275 275 275 275 276 275 276 276 276 276 277 277 277 278 279 279 279 280 280 280 281 281 281 281 281 281 282 282 283 283 284 284 284 284 284 284 283 282 282 282 282 282 281 280 281 281 281 282 283 282 281 280 279 279 279 279 279 280 281 281 285 289 290 291 292 293 293 294 295 296 296 296 295 294 293 293 293
275 275 275 275 276 275 275 275 275 275 275 275 274 275 275 275 275 276 276 277 277 278 278 278 279 279 280 280 280 281 281 281 281 282 282 282 283 282 283 284 284 283 283 283 283 283 283 282 282 282 281 279 279 280 280 280 280 281 281 281 279 278 278 279 280 280 280 280 280 282 287 290 291 292 293 294 295 295 295 295 294 293 292 292 293
276 275 276 275 275 275 275 275 275 275 275 274 275 275 275 275 276 276 276 277 277 277 278 278 279 279 279 280 280 281 281 283 284 284 285 285 282 282 283 283 283 283 283 283 283 283 283 283 282 283 281 279 279 280 278 279 279 280 281 281 280 281 280 279 280 281 281 280 280 280 282 285 286 287 288 289 290 293 293 293 293 292 292 293 292
275 275 275 275 275 274 274 274 274 274 274 274 276 279 280 278 277 277 277 277 277 276 276 277 277 278 278 279 280 282 283 284 284 285 286 287 287 285 283 283 283 283 283 283 283 283 283 282 282 282 281 281 280 280 280 280 281 281 280 280 279 280 279 279 279 280 281 280 279 278 280 284 284 284 285 286 287 290 291 292 290 291 292 293 293
273 273 274 273 273 273 273 273 273 273 273 274 277 279 280 281 278 277 276 276 276 276 276 276 276 276 277 278 278 280 281 282 282 284 286 286 287 287 287 287 286 284 282 282 282 283 282 282 283 283 282 282 282 282 281 281 281 281 281 280 280 280 279 277 277 279 281 280 279 278 279 282 284 282 283 284 285 287 289 290 292 292 292 293 292
271 272 271 271 272 272 272 272 272 272 272 275 277 278 279 280 280 277 276 276 276 276 276 276 276 276 276 277 278 279 279 279 280 280 282 284 285 286 287 287 287 288 288 285 283 282 282 282 282 283 283 283 283 283 282 281 280 280 281 281 280 280 279 279 279 280 280 281 278 278 278 281 283 283 282 283 284 285 288 290 293 293 293 293 292
270 270 270 270 270 270 270 270 270 270 271 274 276 277 278 278 279 278 275 275 275 274 275 275 275 275 275 276 276 277 278 280 280 279 279 279 283 284 285 286 286 287 288 289 289 286 284 283 282 282 283 283 283 283 283 282 282 280 281 280 280 280 280 280 280 281 279 281 279 278 278 280 281 281 281 282 283 284 286 290 292 293 293 293 293
268 268 268 268 268 268 268 268 268 269 269 272 275 276 276 277 277 277 274 274 274 274 274 274 274 274 274 274 275 275 276 277 277 278 278 278 278 279 279 280 281 283 286 287 288 288 287 285 284 283 284 285 284 285 285 284 282 281 281 280 281 280 280 280 282 281 279 281 279 279 278 279 280 280 280 281 282 283 283 287 291 293 293 293 293
266 266 266 265 266 266 266 266 266 266 267 272 274 274 275 275 276 275 272 272 271 271 271 272 272 272 272 273 273 273 273 274 275 277 276 277 277 278 278 279 280 280 281 282 283 284 285 286 286 285 286 286 286 286 286 285 284 284 283 282 282 282 282 283 283 281 280 281 281 280 277 280 280 279 279 280 281 281 282 286 290 292 293 293 292
265 265 265 265 264 264 265 265 265 264 265 271 272 272 273 274 275 271 270 269 268 268 268 269 269 270 271 272 272 272 273 273 276 278 278 277 277 277 278 278 279 280 281 283 286 286 284 284 285 286 286 287 288 287 287 286 284 285 285 284 284 283 281 280 279 281 280 280 281 280 279 279 279 278 278 280 280 280 280 281 287 291 292 292 292
263 263 263 263 264 263 263 263 263 263 264 267 270 272 272 273 272 268 268 268 267 267 267 268 269 269 270 270 271 271 271 271 275 277 278 279 276 276 276 277 278 279 280 281 285 287 288 288 288 289 289 290 290 291 291 291 287 285 284 282 281 282 280 278 279 280 279 279 279 280 280 278 278 278 278 279 279 279 279 279 281 288 291 292 292
261 262 262 262 262 263 262 262 262 262 263 266 270 271 271 272 271 268 267 266 266 266 267 268 269 269 270 273 273 271 271 271 276 277 278 277 274 274 274 275 275 276 277 280 281 282 286 287 288 288 289 289 290 291 291 291 291 289 283 280 282 282 280 280 279 280 280 279 278 281 279 279 279 278 277 275 277 277 278 279 280 283 289 290 291
261 261 261 261 261 261 261 262 265 264 262 264 268 269 270 271 269 267 267 267 266 266 267 267 268 268 269 271 273 272 272 273 276 277 278 276 274 274 274 274 274 274 276 278 279 279 280 280 282 283 284 286 287 287 287 290 290 289 286 284 284 282 280 280 280 280 279 279 280 281 277 278 277 277 277 274 272 274 276 278 279 280 284 286 287
Wind_Speed
6 5 4 6 4 5 5 5 5 5 5 5 6 6 5 5 5 5 6 5 3 3 3 4 3 3 5 4 3 3 3 3 3 2 1 0 0 2 4 4 3 3 4 5 6 7 7 7 7 6 7 8 6 4 2 6 6 7 1 2 2 2 1 1 3 3 3 2 1 1 3 3 4 3 5 3 3 3 4 4 5 5 6 6 7
6 5 6 5 4 4 4 5 5 5 5 6 4 5 5 4 4 5 5 4 4 3 2 4 4 4 4 4 4 4 4 4 4 4 3 1 0 0 3 3 5 4 4 4 6 7 8 7 7 7 7 7 7 7 7 8 7 5 6 5 4 4 4 3 3 3 4 2 2 3 3 3 2 3 3 3 4 3 3 4 3 4 5 5 5
6 6 5 6 5 5 5 4 5 5 4 5 4 5 5 6 6 5 6 5 4 3 3 4 5 4 4 4 5 3 3 2 3 3 3 3 2 1 0 3 3 4 6 4 5 7 7 8 7 7 8 8 9 8 9 9 9 8 7 6 4 3 3 3 5 5 3 3 3 3 3 4 3 3 3 2 3 2 1 1 2 3 4 4 5
7 6 6 6 6 6 5 6 6 5 5 5 5 4 5 4 4 4 4 4 4 3 3 4 4 4 3 4 3 4 3 3 3 3 3 3 2 1 0 0 3 4 4 6 4 3 6 6 7 2 4 5 7 10 11 8 10 6 2 2 4 2 4 3 4 5 5 4 4 4 4 3 3 3 3 3 1 3 2 1 1 1 1 1 3
7 7 7 6 6 7 6 6 6 5 5 4 5 3 3 3 2 2 3 3 3 4 2 3 4 4 3 4 4 4 3 3 4 4 4 4 3 2 1 0 1 3 4 6 6 7 6 3 3 2 5 6 8 9 11 8 8 8 7 7 5 6 3 4 4 6 5 6 6 5 5 4 4 4 3 2 1 2 2 2 2 1 2 1 1
7 6 6 6 6 7 7 6 6 5 5 5 6 5 5 4 3 3 2 3 4 3 3 4 4 2 4 4 4 4 5 4 5 5 4 4 5 3 2 1 0 1 1 4 5 6 6 6 5 6 6 7 10 11 11 10 9 10 9 7 7 5 5 5 7 6 7 6 5 6 6 5 3 3 3 3 2 1 2 2 2 3 3 3 2
7 8 7 6 6 6 6 7 6 5 6 5 6 5 5 6 5 5 2 2 3 3 4 5 4 5 5 4 5 4 3 5 4 4 5 5 5 4 3 3 1 1 1 1 3 4 5 6 6 6 7 7 11 6 4 10 11 12 12 8 6 6 9 7 6 7 1 2 5 5 6 5 5 5 4 3 1 2 2 3 4 4 4 4 3
6 7 7 7 7 8 7 6 6 6 6 5 5 6 6 5 5 6 5 4 3 4 2 4 4 5 4 5 6 4 5 4 5 5 5 5 6 5 5 4 3 2 1 1 1 2 4 4 5 5 5 7 7 8 3 5 4 6 6 7 10 8 9 7 8 7 5 6 5 6 5 4 5 3 3 3 3 4 3 0 1 1 1 2 2
5 6 6 7 7 7 6 7 6 7 6 6 6 6 7 6 5 6 6 7 6 5 4 4 4 5 4 4 4 4 5 6 6 6 3 4 4 4 4 4 4 4 3 2 1 1 2 3 3 4 5 4 6 5 6 6 6 7 6 7 5 10 7 8 8 8 8 8 6 5 3 3 3 3 1 1 4 4 2 3 3 3 4 4 3
5 5 5 5 4 5 5 6 6 6 6 6 6 4 4 6 6 4 5 5 6 6 6 4 3 4 4 4 4 3 5 5 5 4 5 4 5 5 6 5 4 5 5 4 3 2 0 1 2 3 3 4 4 4 5 5 6 3 9 8 8 9 10 5 6 2 7 5 4 6 5 2 1 2 4 5 5 5 5 5 4 4 5 5 4
4 1 3 5 5 4 5 5 6 6 6 6 5 4 4 4 6 5 3 4 5 6 6 5 3 2 3 3 3 4 5 4 3 3 4 5 6 5 3 6 5 4 5 4 4 3 3 1 0 0 0 3 3 4 4 4 6 5 4 9 9 10 6 7 7 5 7 6 5 8 3 5 4 6 7 7 6 6 6 6 6 5 5 5 5
6 5 6 5 3 0 3 6 5 5 6 6 5 6 9 7 6 7 5 2 1 3 3 5 2 1 2 3 3 3 4 4 4 5 4 4 4 2 5 4 4 4 4 4 5 4 4 3 3 2 1 1 1 2 2 4 5 6 6 7 12 13 12 8 8 7 8 9 9 9 8 8 9 9 8 7 7 6 6 6 6 5 5 4 4
8 6 5 4 4 4 4 3 1 3 6 8 8 8 6 5 4 3 6 4 2 3 3 4 5 0 2 3 5 3 3 3 5 6 5 3 3 5 5 3 3 4 5 4 4 4 4 4 4 4 3 3 2 1 0 1 3 5 6 8 11 14 14 13 11 11 11 9 11 10 10 10 9 9 8 8 7 7 7 7 7 6 6 5 5
8 7 7 6 6 5 5 4 4 4 4 2 1 1 2 3 4 3 2 6 6 5 5 6 0 5 3 3 4 5 4 4 5 6 5 4 5 5 5 5 5 5 3 3 4 4 4 5 4 4 4 4 3 3 3 2 3 3 6 7 10 13 16 14 12 10 11 11 11 10 10 10 10 9 9 8 8 8 8 8 8 7 7 6 6
9 8 7 7 7 6 5 4 3 4 3 3 2 1 2 4 5 5 4 1 1 2 6 8 6 2 2 1 4 2 4 4 6 7 4 5 5 6 6 5 6 5 4 4 5 5 4 4 5 4 4 4 4 4 3 4 4 4 4 5 9 12 14 16 14 12 13 11 12 11 11 10 8 8 9 9 9 9 9 9 8 7 7 7 7
7 7 7 7 7 6 5 4 3 1 1 2 1 2 1 2 3 5 3 3 3 5 6 7 4 7 3 7 3 2 6 7 9 5 6 7 6 7 4 6 5 4 3 6 6 6 6 4 5 5 5 5 5 4 4 4 5 4 4 5 5 10 13 18 17 16 15 14 13 13 12 10 9 9 9 10 9 9 9 9 8 8 7 8 7
7 7 6 6 5 5 5 4 3 2 1 1 2 3 2 2 2 3 3 6 5 4 4 6 7 7 6 3 1 2 6 5 2 6 3 4 7 6 5 5 6 6 5 7 5 6 5 5 5 5 5 5 5 5 5 4 4 4 5 6 6 7 11 18 21 19 16 15 15 14 12 11 10 10 10 10 10 10 10 9 8 8 8 8 8
9 9 8 7 7 5 4 5 4 4 2 2 2 2 3 3 5 5 5 5 6 4 4 4 9 9 5 3 3 3 1 2 1 7 2 4 4 4 7 7 5 6 6 6 6 7 5 6 5 7 5 5 5 5 5 5 4 4 5 6 7 7 9 15 21 19 18 17 16 15 14 13 11 11 11 10 10 10 10 10 9 9 9 9 8
10 10 10 10 9 7 6 5 4 5 3 3 3 3 3 3 2 3 5 5 3 6 6 6 4 7 7 8 5 2 2 1 5 1 6 2 4 7 7 4 5 5 7 8 7 6 6 6 7 7 6 5 6 6 6 6 6 6 7 7 8 6 7 10 20 21 20 19 17 16 16 14 13 13 11 10 11 11 10 11 10 10 10 9 9
10 10 10 10 9 9 8 6 6 5 4 4 3 4 4 3 2 2 3 3 4 6 6 5 6 4 7 12 11 5 3 1 3 3 4 6 6 3 3 6 4 6 8 9 9 9 9 8 8 6 6 7 6 6 6 6 5 5 6 8 8 6 5 4 11 16 18 19 18 17 16 15 15 14 13 12 11 12 12 12 11 11 11 10 9
10 10 10 10 9 8 8 8 7 6 4 5 4 4 4 4 6 4 4 4 4 5 5 6 5 7 5 7 7 11 8 6 3 2 5 4 7 4 5 2 3 7 9 9 7 9 10 9 8 8 7 7 7 7 6 6 6 6 6 10 10 9 7 5 2 10 15 16 17 18 16 15 16 15 14 13 13 13 14 13 12 12 12 11 10
9 9 11 10 9 9 9 9 8 7 7 6 5 6 5 5 4 4 4 4 4 4 6 6 6 6 6 6 5 4 5 7 6 6 5 6 12 7 5 6 7 8 9 9 12 10 7 6 7 8 8 8 7 7 7 7 7 6 7 12 12 11 10 7 6 6 7 6 8 13 15 16 16 16 15 14 14 15 15 14 14 13 13 12 11
8 8 9 10 10 9 8 8 8 8 8 8 7 6 6 5 5 4 4 5 5 5 5 5 6 6 7 6 8 8 9 8 7 7 8 9 7 8 6 7 9 8 6 8 9 7 7 7 8 9 10 9 7 7 7 8 8 8 11 13 13 13 12 11 10 9 8 8 8 6 10 14 15 16 16 15 16 16 16 15 14 14 14 14 13
8 9 10 9 8 8 8 9 9 8 8 6 7 7 6 5 5 5 4 4 4 5 5 6 6 6 7 6 7 7 8 8 6 7 7 8 8 12 8 3 5 7 6 3 4 8 9 10 10 10 10 8 7 7 8 8 8 12 10 13 15 16 16 15 14 13 11 11 10 10 8 11 14 14 15 16 16 17 17 17 16 16 15 14 14
9 10 10 10 8 9 9 8 7 7 7 7 7 6 6 6 6 6 5 5 5 4 5 5 6 6 6 7 6 6 8 6 6 7 7 6 7 10 6 4 10 5 3 3 5 3 8 8 9 10 9 8 8 8 8 8 8 10 12 11 17 15 17 18 18 17 15 14 13 11 10 11 12 12 14 15 17 18 17 17 17 17 16 15 14
8 8 7 7 7 6 6 8 7 7 7 7 7 7 6 6 5 6 6 6 4 4 4 5 5 6 6 7 7 7 7 5 7 6 7 6 8 9 9 5 4 8 3 2 2 1 4 8 10 10 8 9 10 8 8 9 8 10 16 11 14 17 17 18 19 19 18 17 16 14 12 12 14 13 12 14 16 18 18 17 17 16 15 15 14
6 6 6 7 7 7 7 7 7 7 7 8 8 8 7 7 6 6 6 5 5 5 5 5 6 6 6 6 7 7 6 6 6 7 5 8 8 8 7 12 10 6 7 4 3 8 7 3 8 8 9 10 9 9 9 9 10 12 15 11 9 17 17 19 21 21 21 20 19 17 15 14 14 14 14 14 15 18 18 18 17 16 16 16 15
5 6 7 6 7 8 8 8 7 7 6 6 6 7 7 7 7 7 8 6 6 7 7 5 6 6 6 6 6 7 6 7 6 7 6 6 7 7 6 8 11 14 7 9 6 7 6 8 3 8 10 11 10 10 11 11 9 13 15 9 9 11 17 20 21 22 22 21 21 20 18 17 16 16 16 14 14 17 18 18 17 17 16 16 15
5 4 6 5 6 6 7 8 8 7 7 7 6 5 5 6 6 7 8 7 6 8 7 7 7 6 6 6 7 7 7 6 5 6 7 6 6 6 7 10 9 10 12 11 11 7 4 10 8 7 12 12 12 10 10 10 11 13 11 11 11 10 13 20 21 22 22 23 22 22 21 20 19 19 18 17 16 17 18 18 17 17 16 15 15
4 5 5 6 6 5 5 6 6 6 7 7 7 7 6 6 5 5 5 5 6 6 6 6 8 7 6 6 6 7 6 6 7 6 6 7 7 7 7 8 7 12 12 12 14 6 5 5 9 6 6 12 11 9 10 11 11 15 11 12 11 11 14 20 21 22 22 23 23 23 23 22 21 20 19 18 18 19 20 20 19 18 17 16 15
7 8 8 8 7 8 6 6 5 5 5 5 5 6 6 7 7 6 5 4 5 6 7 6 7 6 7 8 7 7 6 7 7 6 6 6 7 7 7 6 8 10 11 11 14 9 6 8 9 9 8 10 10 10 9 9 10 15 12 11 12 12 15 15 19 21 22 22 22 23 23 24 23 23 22 20 20 21 21 21 21 20 18 18 17
4 4 5 6 8 8 8 9 9 8 8 7 6 5 5 4 5 6 7 6 6 7 7 5 5 6 7 8 8 8 8 6 7 7 7 6 6 7 7 7 9 8 9 10 13 18 4 7 7 9 12 9 10 11 11 9 9 15 11 11 11 11 11 10 19 21 21 22 23 23 23 23 24 24 23 23 22 22 22 21 22 20 19 19 18
4 6 6 7 6 7 7 8 7 8 8 9 8 7 8 8 7 6 6 6 6 7 7 9 7 5 6 7 8 8 7 7 8 7 7 7 6 7 6 7 8 7 7 9 13 17 9 5 5 5 6 6 7 10 11 10 9 9 12 11 9 10 10 11 11 19 21 21 23 24 23 23 24 24 24 24 23 23 23 23 23 22 22 21 19
3 4 5 5 5 6 6 7 8 7 7 8 8 7 8 8 9 7 8 8 8 8 6 7 8 7 7 7 9 8 7 7 8 8 8 8 7 7 7 7 8 8 7 9 12 12 17 5 6 3 3 7 10 7 12 13 12 10 11 11 9 11 11 11 10 11 19 21 22 24 23 23 23 24 24 24 24 23 24 24 24 24 23 21 20
4 4 4 4 5 5 5 6 6 6 7 7 7 7 8 8 9 9 8 8 9 10 10 9 9 7 8 9 9 8 6 8 8 7 7 8 8 8 9 7 8 8 7 9 10 14 15 12 6 7 6 5 10 10 12 12 12 12 14 13 12 10 10 11 10 9 15 22 23 23 24 24 24 25 24 24 24 23 24 24 24 23 23 22 22
6 5 4 5 5 5 5 6 6 6 7 7 8 7 8 8 10 11 11 10 10 10 10 11 10 9 9 10 10 8 7 9 9 8 7 7 8 9 9 8 8 9 7 7 10 11 11 13 8 7 5 7 9 8 6 8 9 9 11 10 8 9 9 8 10 10 11 21 23 23 23 24 25 24 25 24 24 24 24 24 23 24 24 23 22
5 6 6 4 5 6 7 7 8 8 8 8 9 9 8 7 9 10 11 11 11 12 11 11 11 11 11 12 12 10 8 10 10 8 8 9 8 9 10 9 8 8 7 8 10 9 11 14 13 5 6 7 7 5 6 9 8 8 7 10 11 11 10 9 7 7 8 18 21 23 22 24 25 26 26 26 26 25 25 24 24 25 24 23 23
5 4 6 6 5 7 7 6 7 8 8 9 9 10 9 9 9 10 10 10 10 11 12 12 12 11 11 13 13 11 10 10 11 10 8 10 9 9 10 10 9 9 9 9 8 9 11 13 12 11 5 8 6 6 7 9 10 9 8 8 6 7 8 7 8 7 7 8 10 13 17 20 24 26 26 27 26 26 25 25 25 25 25 23 24
6 8 7 8 7 6 8 7 8 9 9 9 9 10 9 9 9 10 11 11 11 11 11 12 12 12 13 13 14 12 12 12 12 11 11 10 9 11 10 10 9 9 10 10 9 10 11 12 12 10 10 7 8 10 7 8 10 11 13 10 11 8 7 10 10 8 8 9 11 15 14 13 16 16 23 26 27 28 27 26 26 26 25 24 25
7 8 9 10 10 8 9 9 9 9 10 11 10 9 8 8 9 10 11 12 13 13 13 13 12 13 13 14 14 14 13 13 12 12 11 11 10 11 10 9 9 10 10 10 10 10 11 12 12 11 8 8 6 7 1 5 8 10 11 11 12 10 11 12 13 12 11 11 12 11 12 12 13 17 21 26 28 28 28 25 27 25 25 26 26
7 8 9 9 10 11 10 10 11 10 11 11 9 8 8 10 9 10 12 12 12 13 13 14 14 14 13 12 13 13 15 17 21 19 17 15 11 11 11 9 9 10 10 10 10 10 11 11 12 10 10 8 9 9 8 9 14 16 6 6 10 11 9 7 9 10 9 11 10 9 11 12 11 10 11 12 15 23 23 24 20 26 25 27 28
9 10 10 10 9 10 12 13 12 11 11 10 12 21 20 14 13 11 11 12 12 12 13 14 14 14 13 13 13 19 21 22 22 23 23 23 22 17 14 11 10 11 11 11 11 10 10 12 12 11 11 12 12 11 12 13 10 3 7 12 13 8 6 9 9 10 10 10 9 11 11 9 11 11 11 13 11 14 12 15 14 17 23 28 29
10 11 10 12 12 11 11 12 13 12 11 11 21 23 24 26 18 13 13 13 12 12 12 13 15 13 13 12 12 15 17 17 17 21 21 24 24 25 25 23 18 14 12 13 13 11 11 12 12 12 12 14 15 10 12 11 8 11 12 11 11 9 12 13 15 7 10 12 12 9 10 10 11 13 13 14 12 12 13 14 21 24 26 28 29
11 10 11 11 12 12 11 12 13 13 13 17 24 24 25 26 23 16 13 13 11 13 11 13 12 12 14 12 11 10 12 13 15 15 16 19 22 23 24 24 24 25 23 18 15 13 12 12 14 14 13 15 15 10 9 9 10 10 10 10 12 14 13 14 14 14 7 15 11 11 14 9 11 13 14 14 13 12 15 16 24 27 27 27 29
9 11 12 12 13 11 11 13 14 14 13 19 23 26 26 26 26 22 13 13 13 13 14 14 14 14 12 13 12 12 11 21 18 13 14 14 16 21 25 26 26 26 25 27 27 21 14 14 14 16 15 14 15 12 10 10 8 12 12 13 13 13 13 14 15 12 6 15 12 11 14 13 14 16 16 15 13 12 12 16 24 26 27 28 29
10 11 11 12 12 11 11 12 13 14 14 17 24 26 26 27 27 24 15 15 15 14 15 14 14 13 15 15 14 14 13 14 12 14 13 12 14 15 15 15 15 19 23 27 28 29 25 18 16 18 17 14 15 12 9 9 12 14 13 14 13 13 14 18 14 4 6 14 18 15 13 13 14 14 16 13 10 12 13 16 26 27 28 29 28
11 11 12 13 13 11 11 11 12 14 12 21 24 27 27 28 28 24 16 16 16 18 18 17 18 15 15 16 15 16 16 14 10 19 16 17 16 17 16 17 16 16 16 16 16 16 16 16 17 19 20 17 15 16 12 9 14 14 14 16 16 15 15 13 9 8 10 13 15 12 15 14 10 12 16 13 10 13 12 16 25 28 29 29 28
9 9 11 9 12 13 11 11 12 15 14 22 25 26 26 26 28 17 15 16 17 17 17 17 17 16 15 13 13 13 15 16 21 30 26 21 19 19 19 18 17 17 17 17 18 17 17 15 16 18 18 17 17 16 15 12 11 11 10 10 9 10 12 12 15 12 11 9 14 13 11 7 9 15 14 10 10 13 11 11 21 29 29 30 30
10 10 10 11 10 11 13 12 12 15 14 18 24 26 26 28 23 14 15 15 16 17 18 17 17 17 17 16 14 15 17 17 24 29 29 27 19 20 21 22 19 16 16 15 23 25 25 27 26 24 25 24 23 23 23 25 16 10 8 9 13 11 12 14 14 12 12 9 11 14 12 8 8 13 10 8 12 13 11 12 12 22 30 30 30
11 10 10 11 10 9 11 13 11 14 15 17 25 26 27 27 24 16 14 14 15 16 17 17 16 16 18 27 24 19 19 19 24 27 27 23 18 19 20 20 21 20 19 16 14 15 22 26 29 30 30 29 27 26 26 25 25 17 12 15 13 11 13 14 17 13 10 9 11 14 9 14 7 7 7 1 4 6 9 8 8 11 23 26 30
11 10 10 11 11 9 9 12 18 19 15 17 24 25 28 26 21 14 13 13 15 15 15 15 15 16 17 17 24 23 22 24 31 29 30 25 18 17 17 18 20 21 19 17 17 16 14 14 16 18 20 24 22 19 18 26 26 22 17 16 13 13 14 17 15 10 10 12 13 16 13 11 7 8 9 5 6 4 4 7 10 10 11 12 15
Wind_Direction
180 185 156 188 175 176 174 183 176 174 163 179 167 162 162 163 163 162 165 172 182 234 220 212 207 188 172 181 172 169 160 151 157 172 185 252 325 329 341 331 319 310 290 264 224 206 212 216 216 215 195 212 214 194 211 214 193 155 200 197 172 178 255 171 215 179 159 141 121 130 126 148 156 130 120 113 96 88 74 71 70 72 81 80 76
178 168 173 183 176 176 181 181 182 174 176 174 176 160 163 159 161 164 168 177 181 220 183 196 201 188 183 167 182 184 175 165 173 179 187 204 257 302 339 336 329 325 314 284 251 221 222 224 211 209 213 216 207 200 194 233 173 192 217 189 183 176 170 182 212 216 89 134 181 185 166 151 152 122 118 123 154 120 99 97 74 86 76 76 81
175 175 182 175 175 176 188 173 184 188 183 174 164 170 161 174 174 173 176 173 197 195 188 186 194 198 188 167 192 179 185 184 172 176 182 208 217 242 299 348 346 346 351 319 247 244 233 222 213 216 226 218 217 214 194 233 181 230 182 188 190 200 214 211 194 183 112 94 239 214 183 161 156 148 152 134 161 159 146 123 141 106 85 71 75
177 179 181 173 177 181 180 179 194 182 181 170 169 162 167 170 166 166 168 165 188 194 215 188 196 207 186 188 178 182 187 186 180 190 197 200 212 210 262 339 5 10 1 2 13 343 255 239 213 295 263 304 274 220 224 200 188 180 172 232 196 233 227 207 219 213 173 185 214 210 192 155 131 165 151 170 126 163 98 141 81 192 153 100 79
185 181 179 177 177 178 182 192 187 180 178 165 158 141 128 130 148 123 146 151 173 207 209 224 192 216 203 205 179 199 195 175 191 189 195 199 201 196 175 62 5 9 12 12 9 15 11 248 49 2 347 331 307 266 234 202 224 236 200 206 209 192 195 299 247 220 170 199 199 190 194 159 157 163 172 86 179 123 171 127 191 144 140 70 207
173 178 172 171 177 183 183 187 182 176 163 148 159 155 149 146 159 136 171 175 197 204 188 217 242 222 214 204 190 201 188 194 189 196 192 193 193 184 182 135 56 31 4 10 15 14 22 35 43 28 359 352 327 275 235 217 219 238 225 209 205 200 212 218 240 217 219 197 198 194 181 149 168 169 158 165 172 195 175 187 182 206 168 150 158
177 171 174 169 171 181 186 189 169 162 165 167 157 159 154 168 150 165 161 212 214 202 201 210 205 217 216 196 201 210 199 202 199 199 198 198 183 191 182 174 185 96 42 358 7 14 20 31 36 25 22 2 351 287 280 226 221 227 224 217 233 228 199 191 216 219 253 212 201 192 191 164 185 185 142 166 160 186 219 187 190 189 182 163 168
175 170 170 176 177 182 190 167 167 159 164 161 153 166 169 164 177 164 169 214 199 238 241 226 220 222 226 211 210 194 201 210 208 209 212 186 192 187 189 186 184 180 181 113 45 348 32 32 36 43 27 11 354 6 326 257 249 252 248 235 219 204 230 226 214 207 194 213 210 204 203 192 194 186 195 182 214 211 189 281 275 65 206 154 154
170 175 171 176 178 180 176 169 160 163 163 168 176 174 167 172 180 189 179 183 191 208 215 221 231 236 230 223 220 199 203 206 210 211 194 192 194 196 191 195 196 193 183 175 161 67 15 40 47 46 34 9 358 4 15 4 242 231 242 239 203 225 213 226 223 207 200 215 210 201 192 162 16 168 134 194 226 222 227 231 235 216 209 212 190
160 167 171 174 173 166 153 157 160 160 163 169 181 158 166 167 183 198 185 166 192 196 210 210 220 243 253 243 242 228 224 220 222 212 190 198 203 199 198 188 188 199 194 186 185 185 141 5 40 38 24 5 356 351 16 354 353 273 227 225 223 223 244 116 31 211 138 144 167 188 94 187 239 184 218 222 231 231 229 223 222 216 210 206 205
17 10 155 161 160 157 163 171 166 162 161 164 150 153 157 183 183 191 195 204 189 197 189 174 196 238 261 277 288 248 251 250 256 237 224 212 206 209 179 191 193 195 194 195 196 185 188 195 114 48 331 15 332 354 353 354 340 323 277 223 227 225 184 137 127 191 188 186 221 228 209 217 222 229 227 226 222 227 222 221 217 217 212 204 202
37 31 25 14 6 58 167 159 159 147 155 158 169 176 187 184 201 181 181 180 93 152 125 127 63 36 336 322 315 312 283 272 263 237 234 231 236 216 206 211 199 195 197 203 193 200 200 203 201 206 201 271 18 9 345 348 336 317 289 279 233 226 219 175 163 172 194 210 223 225 224 229 227 226 226 225 225 223 222 226 225 222 224 227 222
28 31 33 40 40 27 24 13 15 171 174 193 192 194 190 185 162 156 169 175 209 142 155 127 126 135 348 323 317 310 296 298 265 254 247 250 240 219 236 217 228 207 215 202 201 206 209 209 217 211 208 196 226 232 319 298 325 291 291 277 294 232 226 215 191 195 211 219 224 227 227 226 226 226 225 227 228 228 224 218 217 216 220 226 227
36 33 33 35 37 32 27 26 17 345 341 14 109 116 125 149 142 170 217 186 205 177 172 124 226 197 196 289 320 304 284 297 276 261 252 255 230 228 228 219 223 224 238 210 221 215 217 219 217 220 222 217 224 218 232 231 256 279 279 291 280 284 221 224 221 217 226 216 221 228 226 224 221 222 225 230 230 229 224 219 215 214 215 221 225
23 30 38 32 34 37 34 36 33 15 351 345 5 256 203 185 178 191 199 255 199 167 179 195 182 124 112 73 284 297 312 288 265 249 250 244 238 234 228 230 228 221 212 210 222 222 227 222 222 221 223 230 228 230 232 229 219 238 255 277 276 284 255 206 215 205 217 219 221 224 225 223 225 226 232 232 231 229 225 220 215 214 217 218 222
31 31 32 38 38 35 26 32 29 47 26 328 332 293 262 232 215 228 183 187 214 225 201 205 139 137 262 213 231 154 300 260 243 254 207 227 225 234 232 231 235 241 233 224 223 225 228 221 227 223 221 223 224 224 231 235 237 241 235 250 273 262 268 214 214 216 217 217 220 220 221 215 216 223 222 227 229 230 224 220 219 217 218 220 217
30 33 38 29 40 44 39 29 25 23 29 318 273 258 261 261 260 257 221 220 230 231 217 209 221 223 174 97 343 278 230 253 355 277 224 229 238 235 235 235 233 231 228 237 235 233 227 231 236 239 231 223 226 223 225 236 246 244 254 252 252 260 268 230 208 216 214 215 219 217 218 220 214 219 223 220 224 227 223 221 220 220 218 218 218
14 14 19 24 21 31 40 37 27 12 5 315 304 310 264 231 216 217 237 251 250 229 249 225 229 238 239 217 150 183 232 271 63 281 328 238 259 250 238 235 231 231 235 240 235 237 231 233 229 237 231 228 228 223 222 225 227 240 248 259 257 265 260 244 211 214 208 209 216 215 214 220 218 218 222 217 221 224 225 221 221 221 219 218 219
22 24 17 14 10 11 19 34 36 30 14 360 328 294 289 272 281 232 231 238 243 254 233 239 241 253 257 258 259 199 157 123 249 347 315 313 243 236 250 252 244 242 238 234 233 233 236 229 231 230 232 228 225 224 223 223 223 221 232 240 248 255 266 253 218 210 203 205 209 213 218 217 221 215 216 218 218 222 223 225 222 222 220 219 218
27 22 20 18 13 7 4 9 19 32 26 17 336 325 326 315 301 269 279 250 230 233 246 232 228 236 220 246 253 236 186 183 174 217 259 284 300 287 271 249 251 244 239 236 225 221 224 226 229 229 230 227 224 226 225 224 222 222 224 232 234 241 263 259 216 200 203 202 211 217 214 215 219 218 209 212 217 222 221 219 219 220 219 216 216
26 22 18 15 15 9 6 5 4 5 23 13 357 350 335 324 321 313 274 264 239 240 244 248 231 245 252 251 248 252 253 238 222 185 246 274 273 231 258 280 236 250 244 235 237 227 220 219 217 223 225 226 215 220 221 221 223 222 222 223 220 219 220 212 181 194 198 209 217 219 211 213 218 219 210 207 212 217 217 212 213 215 215 212 213
19 21 18 12 12 11 14 12 6 358 2 6 3 0 352 341 319 312 310 298 286 262 244 251 246 252 238 257 254 268 267 274 259 258 261 208 258 265 229 228 239 243 232 228 229 227 226 222 219 223 226 225 215 216 214 217 217 217 222 221 216 210 210 199 184 158 163 172 190 208 210 212 218 219 213 209 212 213 215 209 207 210 211 210 210
18 19 23 12 8 13 13 10 16 14 10 5 356 351 346 342 326 326 316 299 294 292 284 269 266 264 255 240 248 240 245 244 243 234 239 258 268 262 259 226 229 257 254 237 234 226 219 216 220 223 223 223 216 210 214 219 216 217 213 217 214 208 206 201 186 178 169 164 170 177 207 210 211 214 215 216 214 214 213 212 209 205 206 205 205
18 19 18 12 13 10 10 13 13 9 6 353 353 350 342 345 341 337 321 309 302 297 290 286 274 265 262 258 254 250 250 246 237 220 230 246 247 266 265 285 284 239 270 315 255 226 219 220 223 224 222 221 216 208 214 215 220 216 211 218 213 210 209 204 195 189 183 179 177 186 191 203 207 214 218 221 223 221 215 213 210 206 205 204 203
12 15 9 7 9 12 12 13 8 4 356 358 348 348 350 346 342 337 332 322 306 300 291 276 273 271 271 273 270 266 260 261 249 246 242 238 243 264 258 180 256 281 273 236 257 244 224 229 225 227 223 220 217 208 210 211 216 217 211 220 216 211 212 209 204 198 191 188 187 186 188 194 196 205 214 223 230 226 219 216 213 210 207 205 202
4 10 353 357 10 12 10 9 6 1 1 357 356 349 352 350 339 337 328 315 317 303 283 279 280 270 273 277 274 266 265 264 257 249 248 246 250 245 267 256 214 260 283 259 270 232 262 224 224 221 219 221 221 210 206 211 213 213 213 213 219 214 212 211 209 202 195 193 192 192 189 195 201 202 211 222 233 228 225 221 217 212 209 208 207
6 346 355 5 4 6 9 11 6 3 0 359 356 355 354 349 345 333 323 315 319 315 298 290 290 286 280 264 269 274 268 262 260 257 248 244 248 248 240 268 270 239 260 239 265 220 239 279 224 222 221 222 222 215 212 210 210 207 212 212 220 219 215 215 212 206 200 196 196 194 193 195 201 205 209 217 228 230 225 223 220 216 210 208 207
354 357 355 5 4 1 2 3 360 2 2 1 358 356 351 353 342 342 331 328 333 321 306 301 287 280 276 279 281 270 264 261 254 257 253 250 250 257 243 248 258 273 253 263 236 254 204 235 275 220 217 220 222 219 214 207 211 206 208 210 213 219 218 216 215 211 204 200 199 196 195 197 201 206 209 215 224 228 228 223 223 221 216 211 209
349 354 352 355 1 2 357 355 355 354 354 356 354 355 353 350 344 337 332 328 330 318 311 307 292 285 281 274 269 277 277 268 260 256 255 256 250 247 235 244 249 257 268 266 257 237 245 206 226 234 207 216 218 216 213 212 210 200 203 208 211 213 218 215 215 214 208 204 200 199 197 198 201 204 207 212 219 225 226 225 224 227 222 215 210
359 352 356 355 354 0 356 347 346 347 347 345 348 346 350 345 337 325 313 322 321 312 306 302 298 294 286 287 277 274 271 272 263 250 251 250 252 246 242 244 238 251 260 265 270 205 241 226 215 233 201 220 216 216 212 216 204 199 205 208 209 212 213 213 214 216 214 209 204 201 199 198 199 199 202 208 213 219 222 221 221 220 220 215 213
358 354 353 349 351 347 351 343 340 339 334 337 339 338 341 336 334 328 318 321 315 308 303 305 295 300 296 293 288 280 274 270 270 265 252 251 251 247 250 239 242 244 256 263 274 257 170 231 231 225 216 218 210 216 216 220 206 203 207 208 211 207 204 213 214 217 217 213 208 204 201 200 201 201 201 204 208 214 220 218 219 218 216 212 210
348 350 347 344 340 341 339 339 335 335 336 333 336 330 325 316 311 317 311 321 317 308 300 294 291 294 293 292 287 283 281 278 277 270 264 249 244 250 246 243 248 242 248 255 257 267 196 225 225 221 216 213 204 209 216 217 215 207 210 211 211 195 206 213 216 216 218 215 212 207 204 202 202 202 203 203 206 211 215 217 216 215 212 208 208
347 348 345 341 336 333 330 328 327 324 327 325 329 330 328 319 317 308 306 307 303 299 302 303 298 287 280 278 280 279 280 279 275 274 272 261 250 245 244 246 249 242 236 251 259 269 265 225 251 228 232 203 224 210 212 212 210 211 211 215 203 201 205 210 214 216 216 216 214 212 208 206 204 204 203 204 206 208 210 212 214 212 213 211 210
346 333 329 326 327 324 325 321 321 319 315 314 315 320 314 313 308 310 309 309 305 298 295 290 291 292 287 285 284 281 271 265 271 273 269 270 262 255 245 232 245 248 216 241 258 264 272 246 271 248 244 198 231 203 205 207 212 206 212 211 205 204 206 207 208 214 214 214 213 214 213 209 207 205 204 204 205 207 210 211 211 211 211 210 210
327 322 314 313 311 311 308 306 305 308 306 307 307 308 305 304 302 301 300 299 297 296 295 288 285 285 284 277 273 273 278 275 269 261 263 264 262 260 259 239 243 241 226 225 249 262 267 269 220 246 217 221 216 219 208 215 213 204 209 209 205 207 211 206 207 213 214 213 213 214 213 214 212 209 207 204 203 205 208 210 211 210 209 208 207
319 314 312 307 306 305 303 301 302 302 306 303 303 299 297 300 302 300 302 299 292 288 285 287 287 284 279 282 275 268 265 269 268 264 257 256 260 263 263 257 248 252 230 221 232 252 265 272 245 223 220 211 237 234 218 224 214 210 214 218 213 214 212 210 212 212 213 213 214 214 214 214 215 212 210 205 204 204 206 209 211 212 210 208 207
305 310 311 307 304 304 306 307 307 307 304 303 301 300 298 296 293 294 295 296 294 290 286 282 282 284 283 276 276 275 267 269 269 263 256 255 255 258 262 263 257 255 247 231 236 236 255 259 265 223 222 228 240 231 203 204 216 219 216 217 211 214 211 213 215 218 213 217 217 215 215 215 214 213 212 208 204 204 205 206 210 213 210 207 206
302 296 294 300 292 296 295 292 292 295 297 297 296 297 299 301 298 294 291 288 288 287 287 286 283 280 277 277 277 275 270 265 268 267 260 259 258 257 258 261 260 259 259 251 241 244 243 255 259 262 213 229 240 233 204 200 200 209 221 226 225 215 207 208 215 210 206 210 212 216 216 217 217 215 214 212 206 204 204 205 207 212 211 208 208
313 317 313 306 300 289 293 293 291 292 294 292 292 294 296 296 295 295 296 293 288 286 281 280 280 279 276 275 275 272 268 264 265 266 265 262 259 258 255 259 255 258 259 258 252 247 248 254 256 250 252 225 218 235 219 201 211 208 207 204 218 210 204 208 215 211 207 214 225 220 213 211 215 217 218 216 211 207 204 203 204 207 210 207 207
315 315 313 311 307 304 297 298 296 297 295 294 292 293 294 296 296 291 290 291 291 289 288 284 280 276 274 273 271 270 266 264 263 263 260 262 259 260 256 253 252 252 253 257 256 251 253 254 254 256 238 235 224 242 149 175 219 235 221 204 210 202 208 212 214 207 209 208 210 214 218 214 215 215 216 219 217 212 207 205 204 204 206 206 204
311 306 304 303 304 305 303 299 303 303 300 297 299 304 304 298 291 289 290 288 289 289 288 287 285 284 281 275 272 269 266 262 259 258 257 254 255 262 257 250 248 251 253 253 253 252 253 254 258 252 250 232 226 213 205 205 209 223 197 181 223 215 207 220 233 227 212 208 216 209 212 206 204 207 207 213 218 215 211 205 203 202 201 203 204
315 313 310 308 303 302 306 305 304 302 298 297 302 308 308 304 304 301 295 290 287 284 284 285 282 279 278 279 279 276 273 270 267 265 262 260 256 252 256 254 249 251 252 253 250 248 251 254 253 253 248 246 234 215 220 222 222 193 170 199 218 203 171 220 236 224 208 201 202 214 218 202 200 209 208 217 216 210 212 206 202 197 199 202 203
315 314 314 310 308 306 306 306 305 302 299 300 308 310 309 309 309 305 300 295 286 280 277 276 280 280 277 275 276 278 279 278 275 270 264 263 262 259 256 254 249 246 253 252 249 245 247 249 253 252 249 251 246 222 220 221 205 208 212 203 209 193 200 200 223 223 195 189 204 211 225 208 200 210 211 214 209 207 211 209 201 196 199 201 203
315 313 309 305 305 310 309 307 303 300 301 305 311 310 309 309 308 305 301 295 292 287 282 279 277 279 281 281 277 276 274 274 276 276 271 268 266 264 262 259 257 250 243 242 248 250 241 247 249 248 248 247 252 235 223 209 208 207 218 208 208 205 207 213 221 221 185 177 184 202 225 204 204 217 218 216 208 207 211 209 201 199 198 199 202
312 308 307 309 305 309 308 306 303 302 301 310 312 310 308 309 308 307 299 292 288 286 285 282 282 282 284 283 283 277 273 277 278 276 279 279 273 269 267 265 261 256 250 245 243 243 244 244 246 250 242 249 253 244 223 215 187 209 206 215 214 217 218 221 224 219 139 173 176 208 223 210 193 214 221 216 205 203 210 211 207 202 198 199 199
310 306 305 303 304 306 307 306 302 302 302 313 311 308 308 308 307 305 296 292 288 283 282 281 282 281 281 286 287 286 285 285 283 284 283 280 282 279 274 266 261 258 255 250 249 247 243 242 242 248 248 239 248 251 233 195 198 211 209 217 213 217 219 226 228 189 140 173 185 193 221 215 197 209 222 222 193 205 208 207 208 206 201 200 198
309 306 308 308 305 306 306 305 302 299 301 309 308 307 307 306 304 303 298 296 295 292 291 292 292 292 288 283 281 280 283 282 278 282 282 281 280 277 272 268 263 259 256 253 248 246 244 243 243 246 250 244 243 248 242 213 216 216 211 213 211 213 222 235 245 205 199 193 191 185 218 221 181 202 223 210 193 209 207 207 208 208 205 200 197
296 296 295 296 299 303 304 303 301 297 298 307 307 305 305 304 305 303 300 296 291 288 286 288 286 285 284 281 282 281 281 279 281 281 281 282 281 280 276 270 265 259 255 249 246 242 242 241 243 246 249 246 240 240 239 229 227 226 222 224 220 215 217 222 228 218 215 189 194 194 225 222 164 201 220 199 194 213 206 207 210 209 207 204 200
296 297 294 294 297 299 300 298 296 295 296 304 304 304 305 304 304 297 293 290 287 288 287 289 289 287 285 284 282 282 280 279 282 284 283 282 280 277 275 276 275 272 264 257 251 248 245 246 246 244 246 246 242 239 239 235 227 214 212 212 219 208 216 224 232 222 222 184 201 205 215 216 188 199 207 190 197 209 203 206 208 209 208 206 202
295 292 293 293 290 291 292 294 294 293 295 301 304 304 303 302 299 295 292 289 285 285 287 285 287 287 287 288 289 289 291 291 292 289 286 282 276 276 278 278 278 274 270 266 263 255 247 247 249 249 249 249 246 242 241 240 236 222 203 219 217 210 220 222 231 221 224 196 203 197 202 227 179 179 179 173 192 224 209 204 201 216 214 210 208
286 290 291 290 289 286 282 285 293 295 295 299 303 303 300 298 297 288 284 280 283 284 287 289 288 287 288 288 288 287 286 285 286 286 285 283 277 275 272 272 270 270 267 268 264 261 255 249 248 249 250 250 249 244 242 241 237 232 220 221 216 214 219 226 229 228 231 228 206 177 197 222 143 196 162 126 209 247 186 189 193 200 204 203 203